Weather History for KLVJ - February, 2014

Change the Weather History Date:

Monday, February 17, 2014

  Actual Average (KHOU) Record (KHOU)
Temperature  
Mean Temperature 74 °F 57 °F  
Max Temperature 82 °F 67 °F 86 °F (1907)
Min Temperature 66 °F 47 °F 16 °F (1895)
Degree Days  
Heating Degree Days 0 9  
Month to date heating degree days 176  
Since 1 July heating degree days 1100  
Cooling Degree Days 9    
Growing Degree Days 24 (Base 50)    
Moisture  
Dew Point 62 °F    
Average Humidity 76    
Maximum Humidity 90    
Minimum Humidity 45    
Precipitation  
Precipitation 0.00 in 0.12 in 0.87 in (1940)
Month to date precipitation 1.91  
Year to date precipitation 5.29  
Sea Level Pressure  
Sea Level Pressure 30.06 in    
Wind  
Wind Speed 8 mph (SSW)    
Max Wind Speed 15 mph    
Max Gust Speed 21 mph    
Visibility 8 miles    
Events      
T = Trace of Precipitation, MM = Missing Value Source: NWS Daily Summary

Daily Weather History Graph

Daily Weather History Graph

Search for Another Location

Airport or City:

Trip Planner

Search our weather history database for the weather conditions in past years. The results will help you decide how hot, cold, wet, or windy it might be!

Date:

Astronomy

Feb. 17, 2014 Rise Set
Actual Time 6:58 AM CST 6:11 PM CST
Civil Twilight 6:34 AM CST 6:36 PM CST
Nautical Twilight 6:06 AM CST 7:04 PM CST
Astronomical Twilight 5:38 AM CST 7:31 PM CST
Moon 8:50 PM CST (2/17) 8:14 AM CST (2/17)
Length of Visible Light 12h 01m
Length of Day
11h 13m
Waning Gibbous, 93% of the Moon is Illuminated
Feb 17
Waning Gibbous
Feb 22
Last Quarter
Mar 1
New
Mar 8
First Quarter
Mar 16
Full

Hourly Weather History & Observations

Time (CST) Temp. Heat Index Dew Point Humidity Pressure Visibility Wind Dir Wind Speed Gust Speed Precip Events Conditions
12:53 AM 66.0 °F - 61.0 °F 84% 30.04 in 9.0 mi South 8.1 mph - N/A   Overcast
1:53 AM 66.0 °F - 61.0 °F 84% 30.03 in 9.0 mi SSE 8.1 mph - N/A   Overcast
2:53 AM 66.0 °F - 61.0 °F 84% 30.01 in 9.0 mi South 9.2 mph - N/A   Overcast
3:53 AM 66.0 °F - 62.1 °F 87% 30.01 in 8.0 mi South 8.1 mph - N/A   Overcast
4:53 AM 66.9 °F - 62.1 °F 84% 30.00 in 8.0 mi South 5.8 mph - N/A   Overcast
5:37 AM 66.9 °F - 62.1 °F 84% 29.99 in 8.0 mi South 11.5 mph - N/A   Mostly Cloudy
5:53 AM 66.9 °F - 62.1 °F 84% 29.98 in 8.0 mi South 11.5 mph - N/A   Scattered Clouds
6:44 AM 66.0 °F - 62.1 °F 87% 29.99 in 7.0 mi South 8.1 mph - N/A   Mostly Cloudy
6:53 AM 66.0 °F - 62.1 °F 87% 30.00 in 7.0 mi South 6.9 mph - N/A   Mostly Cloudy
7:01 AM 66.0 °F - 62.1 °F 87% 30.00 in 7.0 mi SSW 5.8 mph - N/A   Scattered Clouds
7:08 AM 66.0 °F - 62.1 °F 87% 30.01 in 7.0 mi SSW 4.6 mph - N/A   Mostly Cloudy
7:53 AM 66.9 °F - 62.1 °F 84% 30.04 in 6.0 mi Calm Calm - N/A   Haze
8:46 AM 69.1 °F - 63.0 °F 81% 30.07 in 7.0 mi WSW 4.6 mph - N/A   Overcast
8:53 AM 69.1 °F - 63.0 °F 81% 30.07 in 7.0 mi West 3.5 mph - N/A   Overcast
9:53 AM 71.1 °F - 63.0 °F 75% 30.09 in 8.0 mi SSW 3.5 mph - N/A   Overcast
10:42 AM 73.9 °F - 63.0 °F 68% 30.09 in 9.0 mi SSW 8.1 mph - N/A   Mostly Cloudy
10:53 AM 75.0 °F - 63.0 °F 66% 30.09 in 9.0 mi SW 8.1 mph - N/A   Overcast
11:09 AM 75.9 °F - 62.1 °F 62% 30.09 in 9.0 mi SSW 11.5 mph 18.4 mph N/A   Mostly Cloudy
11:53 AM 78.1 °F - 62.1 °F 58% 30.09 in 10.0 mi WSW 11.5 mph - N/A   Clear
12:53 PM 81.0 °F 81.3 °F 59.0 °F 47% 30.06 in 10.0 mi SW 15.0 mph 20.7 mph N/A   Partly Cloudy
1:53 PM 82.0 °F 82.1 °F 59.0 °F 45% 30.04 in 10.0 mi WSW 9.2 mph - N/A   Partly Cloudy
2:53 PM 81.0 °F 81.3 °F 59.0 °F 47% 30.04 in 10.0 mi WSW 10.4 mph - N/A   Overcast
3:53 PM 81.0 °F 81.3 °F 59.0 °F 47% 30.04 in 10.0 mi WSW 5.8 mph - N/A   Mostly Cloudy
4:53 PM 79.0 °F - 61.0 °F 54% 30.04 in 8.0 mi NNE 5.8 mph - N/A   Scattered Clouds
5:53 PM 77.0 °F - 63.0 °F 62% 30.06 in 8.0 mi SE 5.8 mph - N/A   Overcast
6:53 PM 73.0 °F - 64.9 °F 76% 30.07 in 10.0 mi SSE 8.1 mph - N/A   Mostly Cloudy
7:53 PM 71.1 °F - 64.9 °F 81% 30.10 in 9.0 mi South 10.4 mph - N/A   Overcast
8:00 PM 70.0 °F - 64.9 °F 84% 30.10 in 9.0 mi South 5.8 mph - N/A   Overcast
8:53 PM 69.1 °F - 64.9 °F 87% 30.11 in 8.0 mi South 5.8 mph - N/A   Overcast
9:53 PM 69.1 °F - 64.0 °F 84% 30.12 in 7.0 mi South 3.5 mph - N/A   Overcast
10:53 PM 68.0 °F - 64.0 °F 87% 30.12 in 7.0 mi South 5.8 mph - N/A   Overcast
11:05 PM 68.0 °F - 64.0 °F 87% 30.13 in 6.0 mi South 5.8 mph - N/A   Overcast
11:22 PM 66.9 °F - 64.0 °F 90% 30.13 in 5.0 mi SSW 4.6 mph - N/A   Overcast
11:53 PM 66.9 °F - 64.0 °F 90% 30.12 in 4.0 mi SSW 4.6 mph - N/A   Overcast